Regional Weather Roundup
Issued by NWS Northern Indiana

Home | Current Version | Previous Version | Graphics & Text | Print | Product List | Glossary On
Versions: 1 2 3 4 5 6 7 8 9 10 11 12 13 14 15 16 17 18 19 20 21 22 23 24 25 26 27 28 29 30 31 32 33 34 35 36 37 38 39 40 41 42 43 44 45 46 47 48 49 50
000
ASUS43 KIWX 241510
RWRIWX

KIWX WEATHER ROUNDUP
NATIONAL WEATHER SERVICE NORTHERN INDIANA
1100 AM EDT SUN SEP 24 2017

NOTE: "FAIR" INDICATES FEW OR NO CLOUDS BELOW 12,000 FEET WITH NO
SIGNIFICANT WEATHER AND/OR OBSTRUCTIONS TO VISIBILITY.

* THESE STATIONS ARE NOT UNDER NWS QUALITY CONTROL. THEY ALSO MAY NOT
  REPORT WEATHER SUCH AS PRECIPITATION OR FOG.

INZ001>027-241600-
NORTHERN INDIANA

CITY           SKY/WX    TMP DP  RH WIND       PRES   REMARKS
GARY*          SUNNY     82  63  51 S5        30.11S
VALPARAISO     SUNNY     82  64  54 SE7       30.13S
MICHIGAN CITY* SUNNY     81  61  50 S6        30.12S
LAPORTE*       SUNNY     80  63  56 S7        30.14S
KNOX*          SUNNY     81  61  50 S6        30.12S
SOUTH BEND     SUNNY     81  62  52 S8        30.13F
GOSHEN         SUNNY     81  60  48 SE8       30.13F
MONTICELLO*    SUNNY     78  63  58 S5        30.11F
LOGANSPORT*    SUNNY     81  59  47 SE7       30.13F
WARSAW*        SUNNY     79  63  57 SE3       30.14S
AUBURN*        SUNNY     79  61  53 SE3       30.16F
FORT WAYNE     SUNNY     80  63  55 E6        30.15S
HUNTINGTON*    SUNNY     80  61  52 S5        30.14S
PERU/GRISSOM   SUNNY     80  63  56 SE6       30.12F

$$
INZ028>050-241600-
CENTRAL INDIANA

CITY           SKY/WX    TMP DP  RH WIND       PRES   REMARKS
LAFAYETTE      SUNNY     78  67  68 CALM      30.11S
KOKOMO*        SUNNY     80  64  58 SE5       30.14F
MUNCIE*        SUNNY     81  60  48 VRB3      30.14S
INDIANAPOLIS   SUNNY     80  62  54 E5        30.12S

$$
MIZ043>046-050>051-056>058-064>065-071>073-077>080-241600-
SOUTHWEST LOWER MICHIGAN

CITY           SKY/WX    TMP DP  RH WIND       PRES   REMARKS
BATTLE CREEK   SUNNY     83  61  47 S9        30.16S
BENTON HARBOR  SUNNY     82  64  54 SE5       30.12S
COLDWATER*     SUNNY     82  56  40 S7        30.16S
HILLSDALE*     PTSUNNY   81  59  47 SE13G48   30.17S
HOLLAND        SUNNY     83  63  50 S7        30.12S
GRAND RAPIDS   SUNNY     84  61  45 S8        30.13S
KALAMAZOO      SUNNY     82  59  45 S8        30.14S
STURGIS*       SUNNY     82  61  49 SE8       30.14S
THREE RIVERS*  FAIR      82  61  48 S5        30.14S

$$
OHZ001>008-015>018-024>025-241600-
NORTHWEST OHIO

CITY           SKY/WX    TMP DP  RH WIND       PRES   REMARKS
WAUSEON*       FAIR      81  63  54 E5        30.16F
DEFIANCE       SUNNY     78  62  57 E5        30.15F
FINDLAY        SUNNY     81  62  52 SE6       30.16S
TOLEDO EXPRESS SUNNY     81  66  60 SE3       30.16F
TOLEDO METCALF SUNNY     82  64  54 VRB3      30.17S
LIMA           SUNNY     83  56  39 VRB7      30.15F

$$
AND FOR LAKE MICHIGAN COASTAL AND OPEN LAKE BUOY OBSERVATIONS

STATION/POSITION TEMP    WIND        PRES    VSBY  WAVE
                 AIR SEA DIR/SP/G                  HT/PER
                 (F)     (DEG/KT/KT) (MB)    (MI)  (FT/S)
CALUMET HARBOR    80     200/  3/  4 1018.7R
MICHIGAN CITY     79     140/  9/ 10   N/A
BURNS HARBOR      81     160/  5/ 10 1020.0S
SAINT JOSEPH      82     200/  3/  5 1020.0
SOUTH LAKE BUOY   72 71  180/  8/ 10 1019.5R         1/ 3
4 MI NW BRIDGMAN  75 72  180/  6/  6 1019.4          1
MICHIGAN CITY     76 72  170/  6/  6   N/A           0

$$
&&




USA.gov is the U.S. government's official web portal to all federal, state and local government web resources and services.